EN

Hourly Weather Bolshie Mozhary

Today, 23 October, Friday

Time Temperature Precipitation Wind Pressure Humidity
00:00 +5°C° 0.6 mm 5 mps 748 mmHg 89%
01:00 +5°C° 0 mm 5 mps 748 mmHg 89%
02:00 +6°C° 0 mm 5 mps 747 mmHg 89%
03:00 +6°C° 0 mm 5 mps 747 mmHg 88%
04:00 +6°C° 0 mm 5 mps 746 mmHg 88%
05:00 +7°C° 0 mm 5 mps 746 mmHg 87%
06:00 +7°C° 0 mm 5 mps 745 mmHg 87%
07:00 +8°C° 0.1 mm 6 mps 745 mmHg 87%
08:00 +9°C° 0.1 mm 6 mps 746 mmHg 87%
09:00 +9°C° 0.1 mm 6 mps 746 mmHg 87%
10:00 +10°C° 0 mm 6 mps 746 mmHg 82%
11:00 +11°C° 0 mm 6 mps 746 mmHg 78%
12:00 +13°C° 0 mm 6 mps 746 mmHg 74%
13:00 +13°C° 0 mm 6 mps 746 mmHg 75%
14:00 +13°C° 0 mm 6 mps 747 mmHg 76%
15:00 +13°C° 0 mm 6 mps 747 mmHg 77%
16:00 +12°C° 0 mm 5 mps 747 mmHg 79%
17:00 +11°C° 0 mm 4 mps 746 mmHg 81%
18:00 +11°C° 0 mm 3 mps 746 mmHg 83%
19:00 +11°C° 0 mm 4 mps 746 mmHg 84%
20:00 +11°C° 0 mm 4 mps 746 mmHg 86%
21:00 +11°C° 0 mm 4 mps 745 mmHg 87%
22:00 +10°C° 1.3 mm 5 mps 745 mmHg 88%
23:00 +10°C° 1.3 mm 6 mps 744 mmHg 90%

Tomorrow, 24 October, Saturday

Time Temperature Precipitation Wind Pressure Humidity
00:00 +11°C° 1.3 mm 7 mps 744 mmHg 92%
01:00 +11°C° 0.2 mm 6 mps 744 mmHg 91%
02:00 +11°C° 0.2 mm 6 mps 744 mmHg 90%
03:00 +11°C° 0.2 mm 6 mps 744 mmHg 89%
04:00 +10°C° 0 mm 5 mps 744 mmHg 90%
05:00 +10°C° 0 mm 5 mps 744 mmHg 91%
06:00 +9°C° 0 mm 5 mps 744 mmHg 92%
07:00 +9°C° 0 mm 5 mps 745 mmHg 90%
08:00 +9°C° 0 mm 5 mps 745 mmHg 88%
09:00 +9°C° 0 mm 5 mps 746 mmHg 86%
10:00 +10°C° 0 mm 5 mps 746 mmHg 82%
11:00 +10°C° 0 mm 5 mps 747 mmHg 78%
12:00 +11°C° 0 mm 4 mps 747 mmHg 74%
13:00 +11°C° 0 mm 4 mps 747 mmHg 73%
14:00 +11°C° 0 mm 4 mps 747 mmHg 73%
15:00 +11°C° 0 mm 4 mps 748 mmHg 73%
16:00 +11°C° 0 mm 3 mps 748 mmHg 74%
17:00 +10°C° 0 mm 3 mps 748 mmHg 76%
18:00 +10°C° 0 mm 2 mps 748 mmHg 77%
19:00 +10°C° 0 mm 2 mps 748 mmHg 77%
20:00 +10°C° 0 mm 2 mps 748 mmHg 78%
21:00 +10°C° 0 mm 2 mps 748 mmHg 78%
22:00 +9°C° 0 mm 2 mps 748 mmHg 78%
23:00 +9°C° 0 mm 2 mps 748 mmHg 79%

Day after tomorrow, 25 October, Sunday

Time Temperature Precipitation Wind Pressure Humidity
00:00 +10°C° 0 mm 1 mps 748 mmHg 79%
01:00 +10°C° 0 mm 1 mps 748 mmHg 79%
02:00 +9°C° 0 mm 2 mps 747 mmHg 80%
03:00 +9°C° 0 mm 2 mps 747 mmHg 80%
04:00 +10°C° 0.3 mm 1 mps 747 mmHg 84%
05:00 +10°C° 0.3 mm 1 mps 747 mmHg 87%
06:00 +9°C° 0.3 mm 1 mps 747 mmHg 90%
07:00 +9°C° 0.5 mm 1 mps 747 mmHg 91%
08:00 +9°C° 0.5 mm 1 mps 746 mmHg 92%
09:00 +9°C° 0.5 mm 1 mps 746 mmHg 93%
10:00 +9°C° 0.4 mm 1 mps 746 mmHg 92%
11:00 +9°C° 0.4 mm 2 mps 747 mmHg 92%
12:00 +9°C° 0.4 mm 2 mps 747 mmHg 91%
13:00 +9°C° 0.1 mm 3 mps 747 mmHg 87%
14:00 +8°C° 0.1 mm 4 mps 748 mmHg 83%
15:00 +8°C° 0.1 mm 5 mps 748 mmHg 78%
16:00 +8°C° 0 mm 4 mps 748 mmHg 81%
17:00 +8°C° 0 mm 3 mps 749 mmHg 84%
18:00 +8°C° 0 mm 2 mps 749 mmHg 87%
19:00 +7°C° 0 mm 2 mps 750 mmHg 89%
20:00 +7°C° 0 mm 2 mps 750 mmHg 90%
21:00 +7°C° 0 mm 2 mps 751 mmHg 91%
22:00 +7°C° 0 mm 3 mps 751 mmHg 92%
23:00 +7°C° 0 mm 3 mps 751 mmHg 92%

, 26 October, Monday

Time Temperature Precipitation Wind Pressure Humidity
00:00 +7°C° 0 mm 3 mps 752 mmHg 92%
01:00 +7°C° 0 mm 3 mps 752 mmHg 92%
02:00 +7°C° 0 mm 4 mps 752 mmHg 91%
03:00 +7°C° 0 mm 4 mps 753 mmHg 91%
04:00 +6°C° 0 mm 4 mps 753 mmHg 91%
05:00 +5°C° 0 mm 3 mps 754 mmHg 91%
06:00 +5°C° 0 mm 3 mps 754 mmHg 91%
07:00 +5°C° 0 mm 3 mps 755 mmHg 88%
08:00 +5°C° 0 mm 4 mps 756 mmHg 86%
09:00 +5°C° 0 mm 4 mps 756 mmHg 83%
10:00 +6°C° 0 mm 4 mps 757 mmHg 77%
11:00 +7°C° 0 mm 3 mps 757 mmHg 71%
12:00 +8°C° 0 mm 3 mps 757 mmHg 66%
13:00 +8°C° 0 mm 3 mps 758 mmHg 64%
14:00 +8°C° 0 mm 3 mps 758 mmHg 62%
15:00 +8°C° 0 mm 3 mps 758 mmHg 60%
16:00 +7°C° 0 mm 3 mps 758 mmHg 65%
17:00 +6°C° 0 mm 2 mps 759 mmHg 70%
18:00 +5°C° 0 mm 2 mps 759 mmHg 74%
19:00 +5°C° 0 mm 2 mps 759 mmHg 77%
20:00 +4°C° 0 mm 2 mps 759 mmHg 79%
21:00 +4°C° 0 mm 2 mps 760 mmHg 81%
22:00 +4°C° 0 mm 1 mps 760 mmHg 82%
23:00 +4°C° 0 mm 1 mps 760 mmHg 84%

26 October, Monday

Time Temperature Precipitation Wind Pressure Humidity
00:00 +7°C° 0 mm 3 mps 752 mmHg 92%
01:00 +7°C° 0 mm 3 mps 752 mmHg 92%
02:00 +7°C° 0 mm 4 mps 752 mmHg 91%
03:00 +7°C° 0 mm 4 mps 753 mmHg 91%
04:00 +6°C° 0 mm 4 mps 753 mmHg 91%
05:00 +5°C° 0 mm 3 mps 754 mmHg 91%
06:00 +5°C° 0 mm 3 mps 754 mmHg 91%
07:00 +5°C° 0 mm 3 mps 755 mmHg 88%
08:00 +5°C° 0 mm 4 mps 756 mmHg 86%
09:00 +5°C° 0 mm 4 mps 756 mmHg 83%
10:00 +6°C° 0 mm 4 mps 757 mmHg 77%
11:00 +7°C° 0 mm 3 mps 757 mmHg 71%
12:00 +8°C° 0 mm 3 mps 757 mmHg 66%
13:00 +8°C° 0 mm 3 mps 758 mmHg 64%
14:00 +8°C° 0 mm 3 mps 758 mmHg 62%
15:00 +8°C° 0 mm 3 mps 758 mmHg 60%
16:00 +7°C° 0 mm 3 mps 758 mmHg 65%
17:00 +6°C° 0 mm 2 mps 759 mmHg 70%
18:00 +5°C° 0 mm 2 mps 759 mmHg 74%
19:00 +5°C° 0 mm 2 mps 759 mmHg 77%
20:00 +4°C° 0 mm 2 mps 759 mmHg 79%
21:00 +4°C° 0 mm 2 mps 760 mmHg 81%
22:00 +4°C° 0 mm 1 mps 760 mmHg 82%
23:00 +4°C° 0 mm 1 mps 760 mmHg 84%

27 October, Tuesday

Time Temperature Precipitation Wind Pressure Humidity
00:00 +4°C° 0 mm 1 mps 760 mmHg 85%
01:00 +3°C° 0 mm 1 mps 761 mmHg 85%
02:00 +3°C° 0 mm 1 mps 761 mmHg 86%
03:00 +3°C° 0 mm 1 mps 761 mmHg 86%
04:00 +3°C° 0 mm 1 mps 761 mmHg 87%
05:00 +2°C° 0 mm 1 mps 762 mmHg 87%
06:00 +2°C° 0 mm 1 mps 762 mmHg 88%
07:00 +2°C° 0 mm 2 mps 762 mmHg 85%
08:00 +2°C° 0 mm 2 mps 762 mmHg 83%
09:00 +3°C° 0 mm 2 mps 762 mmHg 80%
10:00 +4°C° 0 mm 2 mps 762 mmHg 74%
11:00 +5°C° 0 mm 2 mps 762 mmHg 67%
12:00 +7°C° 0 mm 3 mps 763 mmHg 61%
13:00 +7°C° 0 mm 3 mps 762 mmHg 60%
14:00 +7°C° 0 mm 3 mps 762 mmHg 59%
15:00 +8°C° 0 mm 3 mps 762 mmHg 58%
16:00 +5°C° 0 mm 3 mps 762 mmHg 63%
17:00 +4°C° 0 mm 3 mps 762 mmHg 68%
18:00 +3°C° 0 mm 3 mps 762 mmHg 73%
19:00 +3°C° 0 mm 3 mps 762 mmHg 74%
20:00 +3°C° 0 mm 3 mps 761 mmHg 76%
21:00 +2°C° 0 mm 3 mps 761 mmHg 77%
22:00 +2°C° 0 mm 3 mps 761 mmHg 77%
23:00 +2°C° 0 mm 3 mps 761 mmHg 76%

28 October, Wednesday

Time Temperature Precipitation Wind Pressure Humidity
00:00 +2°C° 0 mm 3 mps 761 mmHg 76%
01:00 +2°C° 0 mm 3 mps 761 mmHg 76%
02:00 +2°C° 0 mm 3 mps 761 mmHg 75%
03:00 +2°C° 0 mm 3 mps 761 mmHg 74%
04:00 +2°C° 0 mm 3 mps 761 mmHg 73%
05:00 +1°C° 0 mm 4 mps 761 mmHg 72%
06:00 +1°C° 0 mm 4 mps 760 mmHg 71%
07:00 +3°C° 0 mm 4 mps 760 mmHg 70%
08:00 +3°C° 0 mm 4 mps 760 mmHg 68%
09:00 +3°C° 0 mm 5 mps 760 mmHg 66%
10:00 +5°C° 0 mm 5 mps 760 mmHg 62%
11:00 +6°C° 0 mm 5 mps 760 mmHg 57%
12:00 +7°C° 0 mm 5 mps 760 mmHg 52%
13:00 +7°C° 0 mm 5 mps 759 mmHg 51%
14:00 +8°C° 0 mm 5 mps 759 mmHg 49%
15:00 +8°C° 0 mm 5 mps 759 mmHg 47%
16:00 +7°C° 0 mm 4 mps 759 mmHg 50%
17:00 +6°C° 0 mm 4 mps 759 mmHg 53%
18:00 +5°C° 0 mm 4 mps 758 mmHg 56%
19:00 +5°C° 0 mm 4 mps 758 mmHg 56%
20:00 +5°C° 0 mm 4 mps 758 mmHg 57%
21:00 +4°C° 0 mm 4 mps 758 mmHg 57%
22:00 +4°C° 0 mm 4 mps 758 mmHg 56%
23:00 +4°C° 0 mm 4 mps 758 mmHg 55%
Show more